T 2009 Jan. 10.64558 TT                                 Nakano

q   1.2122852            (2000.0)            P               Q

z  +0.0000221      Peri.  136.86466     -0.92920597     -0.36941629

 +/-0.0000017      Node   338.53765     -0.34631909     +0.86061105

e   0.9999733      Incl.  178.37336     -0.12899364     +0.35054276

From 548 observations 2007 July 11-2008 July 5, mean residual 0".46.

   (1/a)org.= +0.000027, (1/a)fut.= +0.000823 (+/-0.000002), Q= 7.

 

Date/        TT  R.A.(2000) Decl.     Delta   r     Daily motion  Mag.  Moon Age

              h    h  m       。  ,                      ,  / PA 。  m1      。

2008 July  5 14  20 47.88  -16 20.4   1.947  2.895    40.5 / 256  11.1  172  .08

           6 14  20 45.15  -16 30.2   1.928  2.884    41.5 / 256  11.0  158  .16

           7 14  20 42.34  -16 40.1   1.909  2.873    42.5 / 256  11.0  144  .24

           8 14  20 39.46  -16 50.2   1.891  2.862    43.5 / 256  10.9  130  .34

           9 14  20 36.51  -17 00.3   1.873  2.851    44.5 / 257  10.9  117  .44

          10 14  20 33.49  -17 10.6   1.856  2.840    45.5 / 257  10.9  104  .54

          11 14  20 30.40  -17 20.9   1.839  2.829    46.5 / 257  10.8   91  .63

          12 14  20 27.23  -17 31.2   1.823  2.818    47.4 / 257  10.8   78  .72

          13 14  20 24.00  -17 41.6   1.807  2.807    48.3 / 257  10.8   66  .80

          14 14  20 20.69  -17 51.9   1.792  2.796    49.2 / 258  10.7   53  .87

          15 14  20 17.32  -18 02.3   1.777  2.785    50.1 / 258  10.7   40  .93

          16 14  20 13.88  -18 12.7   1.764  2.775    50.9 / 258  10.7   28  .97

          17 14  20 10.38  -18 23.0   1.751  2.764    51.7 / 258  10.6   15  .99

          18 14  20 06.82  -18 33.2   1.738  2.753    52.5 / 259  10.6    4 1.00

          19 14  20 03.19  -18 43.4   1.726  2.742    53.2 / 259  10.6   12  .98

          20 14  19 59.51  -18 53.4   1.715  2.731    53.9 / 259  10.5   26  .95

          21 14  19 55.77  -19 03.3   1.704  2.720    54.6 / 260  10.5   39  .90

          22 14  19 51.99  -19 13.0   1.694  2.709    55.1 / 260  10.5   53  .82

          23 14  19 48.15  -19 22.6   1.685  2.698    55.7 / 260  10.4   67  .73

          24 14  19 44.27  -19 32.0   1.676  2.687    56.2 / 260  10.4   82  .63

          25 14  19 40.35  -19 41.1   1.669  2.676    56.6 / 261  10.4   96  .52

          26 14  19 36.39  -19 50.0   1.661  2.665    56.9 / 261  10.4  111  .41

          27 14  19 32.40  -19 58.7   1.655  2.654    57.2 / 261  10.3  127  .30

          28 14  19 28.38  -20 07.1   1.649  2.643    57.5 / 262  10.3  142  .20

          29 14  19 24.34  -20 15.2   1.644  2.632    57.6 / 262  10.3  157  .11

          30 14  19 20.28  -20 22.9   1.640  2.621    57.7 / 262  10.3  172  .05

          31 14  19 16.21  -20 30.4   1.636  2.610    57.8 / 263  10.2  170  .01

     Aug.  1 14  19 12.13  -20 37.5   1.633  2.599    57.7 / 263  10.2  155  .00

           2 14  19 08.04  -20 44.3   1.631  2.588    57.6 / 263  10.2  140  .02

           3 14  19 03.95  -20 50.7   1.629  2.577    57.5 / 264  10.2  125  .06

           4 14  18 59.87  -20 56.7   1.628  2.565    57.3 / 264  10.1  111  .12

           5 14  18 55.81  -21 02.4   1.628  2.554    57.0 / 264  10.1   97  .20

           6 14  18 51.75  -21 07.7   1.628  2.543    56.6 / 265  10.1   84  .28

           7 14  18 47.72  -21 12.6   1.629  2.532    56.2 / 265  10.1   70  .38

           8 14  18 43.72  -21 17.2   1.631  2.521    55.7 / 266  10.1   57  .47

           9 14  18 39.74  -21 21.4   1.633  2.510    55.2 / 266  10.1   45  .57

          10 14  18 35.80  -21 25.2   1.636  2.499    54.6 / 266  10.0   32  .66

          11 14  18 31.89  -21 28.6   1.639  2.488    54.0 / 267  10.0   19  .75

          12 14  18 28.03  -21 31.7   1.643  2.477    53.3 / 267  10.0    8  .83

          13 14  18 24.21  -21 34.4   1.648  2.466    52.6 / 267  10.0    9  .89

          14 14  18 20.44  -21 36.8   1.653  2.455    51.9 / 268  10.0   21  .95

          15 14  18 16.72  -21 38.8   1.658  2.444    51.1 / 268  10.0   34  .98

          16 14  18 13.05  -21 40.6   1.664  2.433    50.3 / 268  10.0   47 1.00

          17 14  18 09.45  -21 42.0   1.671  2.422    49.4 / 269  10.0   61  .99

          18 14  18 05.90  -21 43.1   1.678  2.411    48.6 / 269   9.9   75  .97

          19 14  18 02.42  -21 43.9   1.686  2.400    47.7 / 269   9.9   89  .92

          20 14  17 58.99  -21 44.5   1.694  2.389    46.8 / 269   9.9  103  .85

          21 14  17 55.64  -21 44.8   1.702  2.378    45.8 / 270   9.9  118  .76

          22 14  17 52.35  -21 44.9   1.711  2.367    44.9 / 270   9.9  132  .66

          23 14  17 49.13  -21 44.8   1.720  2.356    43.9 / 270   9.9  147  .55

          24 14  17 45.98  -21 44.4   1.730  2.345    43.0 / 271   9.9  161  .43

          25 14  17 42.89  -21 43.9   1.740  2.334    42.0 / 271   9.9  174  .32

          26 14  17 39.88  -21 43.2   1.750  2.323    41.0 / 271   9.9  166  .22

          27 14  17 36.94  -21 42.3   1.761  2.311    40.0 / 271   9.9  152  .13

          28 14  17 34.07  -21 41.2   1.772  2.300    39.0 / 272   9.9  138  .06

          29 14  17 31.27  -21 40.0   1.783  2.289    38.0 / 272   9.9  123  .02

          30 14  17 28.55  -21 38.7   1.794  2.278    37.1 / 272   9.8  109  .00

          31 14  17 25.89  -21 37.3   1.806  2.267    36.1 / 272   9.8   94  .01

     Sept. 1 14  17 23.30  -21 35.8   1.818  2.256    35.1 / 273   9.8   81  .04

NAKANO

         **** Don't distribute anyone except personal use only ****

                (C) Copyright 2008 OAA/ComputingSection

write mail from CFAD0::NAKANO on 2008-07-06 04:41:03(JST).

 



    C/2007 N3 (Lulin)

Epoch 2009 Jan. 9.0 TT = JDT 2454840.5  

T 2009 Jan. 10.64385 TT                                 Nakano

q   1.2122860            (2000.0)            P               Q

z  +0.0000186      Peri.  136.86334     -0.92920437     -0.36942026

 +/-0.0000077      Node   338.53657     -0.34632361     +0.86061021

e   0.9999774      Incl.  178.37320     -0.12899299     +0.35054065

From 465 observations 2007 July 11-2008 May  9, mean residual 0".45.

   (1/a)org.= +0.000024, (1/a)fut.= +0.000820 (+/-0.000008), Q= 7.

   The comet will pass 2.46 AU from Jupiter, 0.099 AU from Mars and

   0.41 AU from Earth on 2008 June 24, Nov. 22 and 2009 Feb. 24 UT,

   respectively.

NAKANO

         **** Don't distribute anyone except personal use only ****

                (C) Copyright 2008 OAA/ComputingSection

write mail from CFAD0::NAKANO on 2008-05-30 05:17:26(JST).







    C/2007 N3 (Lulin)

Epoch 2009 Jan. 9.0 TT = JDT 2454840.5  

T 2009 Jan. 10.66505 TT                                 Nakano

q   1.2125495            (2000.0)            P               Q

z  +0.0000040      Peri.  136.85401     -0.92916081     -0.36952970

 +/-0.0000079      Node   338.53398     -0.34642712     +0.86057105

e   0.9999952      Incl.  178.37279     -0.12902883     +0.35052141

From 440 observations 2007 July 11-2008 Jan. 1, mean residual 0".46.

   (1/a)org.= +0.000009, (1/a)fut.= +0.000805 (+/-0.000008), Q= 6.

   The comet will pass 2.46 AU from Jupiter, 0.10 AU from Mars and

   0.41 AU from Earth on 2008 June 24, Nov. 22 and 2009 Feb. 24,

   respectively.



NAKANO

         **** Don't distribute anyone except personal use only ****

                (C) Copyright 2008 OAA/ComputingSection

write mail from CFAD0::NAKANO on 2008-03-30 06:44:05(JST).

 





    C/2007 N3 (Lulin)

Epoch 2009 Jan. 9.0 TT = JDT 2454840.5  

T 2009 Jan. 10.66378 TT                                 Nakano

q   1.2125048            (2000.0)            P               Q

z  +0.0000106      Peri.  136.85614     -0.92917003     -0.36950655

 +/-0.0000103      Node   338.53469     -0.34640509     +0.86057923

e   0.9999871      Incl.  178.37290     -0.12902159     +0.35052574

From 436 observations 2007 July 11-Nov. 7, mean residual 0".45.

   (1/a)org.= +0.000016, (1/a)fut.= +0.000812 (+/-0.000010), Q= 6.



NAKANO

         **** Don't distribute anyone except personal use only ****

                (C) Copyright 2007 OAA/ComputingSection

write mail from CFAD0::NAKANO on 2007-11-30 09:05:11(JST).

 



    C/2007 N3 (Lulin)

Epoch 2009 Jan. 9.0 TT = JDT 2454840.5  

T 2009 Jan. 10.69501 TT                                 Nakano

q   1.2130498            (2000.0)            P               Q

z  -0.0000417      Peri.  136.84280     -0.92907041     -0.36975703

 +/-0.0000283      Node   338.53680     -0.34663540     +0.86048455

e   1.0000506      Incl.  178.37322     -0.12912034     +0.35049404

From 386 observations 2007 July 11-Oct. 16, mean residual 0".44.

   (1/a)org.= -0.000037, (1/a)fut.= +0.000759 (+/-0.000028), Q= 6.



NAKANO

         **** Don't distribute anyone except personal use only ****

                (C) Copyright 2007 OAA/ComputingSection

write mail from CFAD0::NAKANO on 2007-10-18 07:23:28(JST).

 





    C/2007 N3 (Lulin)

T 2009 Jan. 10.73703 TT                                 Nakano

q   1.2118366            (2000.0)            P               Q

                   Peri.  136.84579     -0.92939942     -0.36892842

                   Node   338.48868     -0.34588059     +0.86079378

e   1.0            Incl.  178.37184     -0.12877634     +0.35060789

From 285 observations 2007 July 11-Sept. 9.



NAKANO

         **** Don't distribute anyone except personal use only ****

                (C) Copyright 2007 OAA/ComputingSection

write mail from CFAD0::NAKANO on 2007-09-16 02:42:41(JST).

 





    C/2007 N3 (Lulin)

T 2009 Jan. 10.51175 TT                                 Nakano

q   1.2100151            (2000.0)            P               Q

                   Peri.  136.88913     -0.92965066     -0.36829508

                   Node   338.49299     -0.34528939     +0.86102535

e   1.0            Incl.  178.37277     -0.12854915     +0.35070512

From 154 observations 2007 July 11-Aug. 10.



NAKANO

